QPF
0.00 0.01 0.01 0.01 0.01 0.00 0.00 0.00 0.01 0.01 0.00 0.00 0.00 0.01 0.01 0.01 0.01 0.00 0.01 0.01 0.01 0.01 0.01 0.01 0.01 0.01 0.02 0.03 0.03 0.04 0.03 0.03 0.03 0.02 0.03 0.02 0.02 0.01 0.01 0.01 0.01 0.01 0.01
0.01 0.01 0.01 0.01 0.01 0.00 0.00 0.00 0.01 0.01 0.00 0.00 0.00 0.01 0.00 0.00 0.01 0.01 0.01 0.01 0.01 0.01 0.02 0.01 0.01 0.02 0.01 0.01 0.03 0.03 0.02 0.02 0.03 0.02 0.03 0.02 0.02 0.02 0.01 0.01 0.01 0.01 0.00
0.01 0.01 0.01 0.02 0.01 0.01 0.01 0.01 0.02 0.01 0.01 0.00 0.00 0.00 0.00 0.00 0.01 0.01 0.01 0.00 0.01 0.01 0.01 0.01 0.01 0.01 0.01 0.01 0.01 0.01 0.01 0.01 0.02 0.02 0.02 0.01 0.01 0.01 0.01 0.01 0.01 0.00 0.00
0.01 0.01 0.02 0.03 0.03 0.02 0.02 0.02 0.01 0.01 0.01 0.01 0.01 0.00 0.00 0.00 0.00 0.01 0.01 0.01 0.01 0.00 0.00 0.01 0.01 0.00 0.00 0.01 0.01 0.01 0.01 0.01 0.01 0.01 0.01 0.01 0.01 0.00 0.00 0.00 0.00 0.00 0.00
0.00 0.01 0.01 0.03 0.02 0.02 0.02 0.01 0.01 0.00 0.01 0.01 0.01 0.01 0.00 0.00 0.00 0.01 0.01 0.01 0.01 0.00 0.01 0.01 0.00 0.01 0.01 0.01 0.01 0.01 0.00 0.01 0.01 0.00 0.00 0.00 0.00 0.00 0.00 0.00 0.00 0.00 0.00
0.00 0.00 0.01 0.02 0.02 0.01 0.01 0.01 0.00 0.00 0.00 0.00 0.00 0.01 0.01 0.01 0.02 0.03 0.02 0.01 0.01 0.01 0.01 0.01 0.01 0.01 0.01 0.01 0.01 0.01 0.01 0.00 0.00 0.00 0.01 0.01 0.00 0.00 0.00 0.00 0.00 0.00 0.00
0.01 0.00 0.01 0.01 0.02 0.01 0.01 0.00 0.00 0.01 0.01 0.01 0.01 0.01 0.01 0.01 0.02 0.01 0.01 0.01 0.01 0.01 0.01 0.01 0.02 0.02 0.01 0.01 0.01 0.01 0.01 0.00 0.00 0.00 0.00 0.00 0.00 0.00 0.00 0.01 0.01 0.00 0.00
0.00 0.00 0.01 0.01 0.02 0.02 0.01 0.01 0.01 0.02 0.02 0.02 0.01 0.00 0.01 0.01 0.01 0.00 0.01 0.01 0.02 0.01 0.01 0.02 0.02 0.02 0.02 0.02 0.01 0.01 0.01 0.01 0.01 0.01 0.01 0.00 0.00 0.00 0.00 0.00 0.00 0.00 0.00
0.00 0.00 0.01 0.01 0.01 0.01 0.01 0.01 0.01 0.02 0.02 0.02 0.01 0.01 0.01 0.01 0.00 0.00 0.01 0.01 0.02 0.02 0.01 0.02 0.02 0.02 0.02 0.01 0.01 0.01 0.01 0.01 0.01 0.02 0.01 0.01 0.01 0.01 0.01 0.01 0.01 0.01 0.01
0.00 0.00 0.00 0.01 0.01 0.01 0.02 0.01 0.01 0.01 0.01 0.01 0.01 0.01 0.00 0.00 0.01 0.01 0.01 0.01 0.02 0.02 0.02 0.02 0.03 0.02 0.03 0.02 0.02 0.02 0.02 0.03 0.03 0.03 0.02 0.02 0.02 0.02 0.02 0.02 0.01 0.01 0.01
0.00 0.00 0.00 0.01 0.01 0.02 0.03 0.02 0.02 0.01 0.00 0.00 0.00 0.00 0.00 0.01 0.01 0.01 0.01 0.02 0.03 0.03 0.03 0.03 0.03 0.03 0.03 0.03 0.03 0.03 0.03 0.02 0.02 0.01 0.01 0.01 0.01 0.01 0.01 0.01 0.01 0.01 0.01
0.02 0.01 0.01 0.01 0.01 0.01 0.01 0.02 0.01 0.00 0.00 0.00 0.00 0.00 0.00 0.00 0.00 0.01 0.01 0.01 0.01 0.02 0.02 0.02 0.02 0.01 0.01 0.01 0.01 0.01 0.01 0.01 0.01 0.01 0.01 0.01 0.01 0.01 0.01 0.01 0.01 0.01 0.01
0.02 0.01 0.01 0.01 0.00 0.00 0.00 0.02 0.02 0.01 0.01 0.00 0.00 0.00 0.00 0.00 0.00 0.00 0.00 0.00 0.00 0.00 0.00 0.01 0.01 0.00 0.00 0.00 0.00 0.00 0.00 0.00 0.00 0.00 0.00 0.01 0.01 0.01 0.01 0.01 0.01 0.01 0.01
0.02 0.02 0.02 0.01 0.01 0.00 0.00 0.01 0.02 0.01 0.00 0.00 0.00 0.00 0.00 0.00 0.00 0.00 0.00 0.00 0.00 0.00 0.00 0.00 0.01 0.01 0.01 0.00 0.00 0.00 0.00 0.00 0.00 0.01 0.01 0.01 0.02 0.02 0.02 0.02 0.02 0.02 0.02
0.01 0.01 0.01 0.01 0.01 0.01 0.01 0.01 0.01 0.01 0.01 0.01 0.01 0.01 0.01 0.00 0.00 0.00 0.00 0.00 0.00 0.00 0.00 0.00 0.00 0.01 0.01 0.01 0.01 0.01 0.00 0.00 0.00 0.00 0.00 0.00 0.01 0.01 0.01 0.01 0.01 0.01 0.02
0.01 0.01 0.01 0.01 0.01 0.01 0.01 0.00 0.00 0.01 0.01 0.01 0.01 0.01 0.01 0.01 0.01 0.01 0.01 0.01 0.01 0.00 0.00 0.00 0.00 0.00 0.00 0.00 0.00 0.00 0.00 0.00 0.00 0.00 0.00 0.00 0.00 0.01 0.01 0.01 0.01 0.01 0.01
0.01 0.01 0.01 0.01 0.01 0.01 0.01 0.00 0.00 0.01 0.01 0.01 0.01 0.01 0.02 0.01 0.01 0.01 0.01 0.01 0.01 0.01 0.00 0.00 0.00 0.00 0.00 0.00 0.00 0.00 0.00 0.00 0.00 0.00 0.00 0.00 0.01 0.01 0.01 0.01 0.01 0.01 0.01
0.00 0.01 0.01 0.01 0.02 0.01 0.01 0.00 0.00 0.00 0.00 0.00 0.00 0.00 0.01 0.01 0.02 0.01 0.02 0.02 0.01 0.01 0.00 0.00 0.00 0.00 0.00 0.00 0.00 0.00 0.00 0.00 0.01 0.01 0.01 0.01 0.01 0.01 0.01 0.01 0.01 0.01 0.01
0.01 0.01 0.01 0.01 0.01 0.02 0.01 0.01 0.00 0.00 0.00 0.00 0.00 0.00 0.00 0.01 0.01 0.02 0.02 0.02 0.01 0.01 0.01 0.01 0.00 0.00 0.01 0.01 0.01 0.01 0.01 0.01 0.01 0.01 0.01 0.01 0.01 0.01 0.01 0.01 0.01 0.02 0.02
0.01 0.01 0.01 0.01 0.01 0.01 0.01 0.01 0.01 0.00 0.00 0.00 0.00 0.00 0.00 0.01 0.01 0.01 0.01 0.02 0.02 0.02 0.01 0.01 0.01 0.01 0.01 0.01 0.01 0.01 0.01 0.01 0.01 0.01 0.01 0.01 0.01 0.01 0.02 0.02 0.02 0.02 0.02
0.01 0.01 0.01 0.01 0.01 0.01 0.01 0.01 0.01 0.01 0.00 0.00 0.00 0.01 0.01 0.00 0.01 0.01 0.01 0.02 0.02 0.02 0.03 0.03 0.02 0.02 0.02 0.01 0.01 0.01 0.01 0.01 0.01 0.01 0.01 0.01 0.01 0.01 0.01 0.02 0.02 0.02 0.02
0.01 0.00 0.00 0.01 0.01 0.01 0.02 0.02 0.02 0.01 0.01 0.01 0.01 0.01 0.01 0.01 0.01 0.01 0.01 0.02 0.02 0.03 0.03 0.03 0.02 0.01 0.01 0.01 0.01 0.01 0.01 0.01 0.01 0.01 0.02 0.02 0.01 0.01 0.01 0.01 0.01 0.01 0.02
0.01 0.00 0.00 0.00 0.01 0.01 0.01 0.01 0.01 0.01 0.01 0.01 0.01 0.01 0.01 0.01 0.01 0.02 0.02 0.02 0.02 0.02 0.02 0.02 0.01 0.01 0.00 0.00 0.01 0.01 0.01 0.01 0.01 0.01 0.02 0.02 0.02 0.02 0.02 0.01 0.01 0.01 0.01
0.03 0.03 0.02 0.02 0.02 0.02 0.02 0.01 0.01 0.01 0.01 0.01 0.01 0.01 0.01 0.02 0.02 0.02 0.02 0.02 0.02 0.02 0.02 0.01 0.01 0.01 0.00 0.01 0.01 0.01 0.01 0.01 0.01 0.01 0.02 0.02 0.02 0.02 0.02 0.02 0.01 0.01 0.01
0.04 0.04 0.03 0.03 0.02 0.02 0.01 0.01 0.01 0.01 0.01 0.01 0.01 0.01 0.01 0.01 0.02 0.03 0.03 0.03 0.03 0.02 0.02 0.01 0.01 0.01 0.01 0.01 0.01 0.01 0.01 0.01 0.01 0.01 0.02 0.02 0.03 0.03 0.02 0.02 0.02 0.02 0.02
0.02 0.02 0.02 0.02 0.02 0.01 0.01 0.01 0.01 0.01 0.01 0.01 0.01 0.01 0.01 0.01 0.02 0.03 0.04 0.05 0.05 0.05 0.04 0.03 0.03 0.02 0.02 0.02 0.02 0.02 0.01 0.01 0.01 0.01 0.01 0.02 0.02 0.03 0.03 0.03 0.02 0.02 0.03
MSLP
1021.45 1021.42 1021.44 1021.51 1021.62 1021.75 1021.89 1022.02 1022.14 1022.25 1022.35 1022.43 1022.50 1022.56 1022.62 1022.67 1022.72 1022.79 1022.87 1022.98 1023.11 1023.26 1023.43 1023.60 1023.75 1023.88 1023.97 1024.01 1024.03 1024.02 1024.01 1024.02 1024.05 1024.12 1024.23 1024.36 1024.51 1024.65 1024.77 1024.86 1024.91 1024.93 1024.92
1021.95 1021.87 1021.83 1021.83 1021.85 1021.91 1021.97 1022.06 1022.15 1022.25 1022.35 1022.45 1022.55 1022.64 1022.74 1022.83 1022.92 1023.02 1023.13 1023.25 1023.39 1023.54 1023.69 1023.83 1023.96 1024.06 1024.13 1024.18 1024.22 1024.24 1024.27 1024.32 1024.40 1024.50 1024.62 1024.75 1024.87 1024.97 1025.04 1025.07 1025.06 1025.03 1024.98
1022.54 1022.44 1022.35 1022.27 1022.21 1022.18 1022.17 1022.18 1022.21 1022.27 1022.36 1022.45 1022.56 1022.68 1022.80 1022.93 1023.05 1023.19 1023.32 1023.46 1023.60 1023.75 1023.89 1024.01 1024.13 1024.22 1024.30 1024.37 1024.43 1024.50 1024.58 1024.69 1024.81 1024.95 1025.09 1025.23 1025.33 1025.40 1025.42 1025.40 1025.34 1025.26 1025.17
1023.16 1023.06 1022.94 1022.81 1022.68 1022.56 1022.46 1022.40 1022.36 1022.37 1022.41 1022.48 1022.58 1022.69 1022.82 1022.96 1023.11 1023.26 1023.41 1023.57 1023.72 1023.86 1024.00 1024.13 1024.25 1024.35 1024.45 1024.54 1024.65 1024.76 1024.90 1025.06 1025.24 1025.42 1025.59 1025.73 1025.83 1025.88 1025.87 1025.82 1025.72 1025.61 1025.49
1023.76 1023.69 1023.56 1023.40 1023.21 1023.02 1022.85 1022.70 1022.59 1022.53 1022.51 1022.53 1022.60 1022.69 1022.80 1022.93 1023.08 1023.23 1023.39 1023.55 1023.71 1023.87 1024.02 1024.16 1024.29 1024.41 1024.53 1024.67 1024.82 1024.99 1025.18 1025.39 1025.61 1025.83 1026.03 1026.18 1026.29 1026.33 1026.32 1026.25 1026.14 1026.02 1025.89
1024.29 1024.25 1024.13 1023.96 1023.74 1023.51 1023.27 1023.06 1022.88 1022.74 1022.66 1022.62 1022.62 1022.67 1022.74 1022.84 1022.97 1023.11 1023.26 1023.42 1023.59 1023.76 1023.92 1024.08 1024.24 1024.39 1024.55 1024.73 1024.92 1025.13 1025.36 1025.62 1025.87 1026.12 1026.34 1026.52 1026.64 1026.69 1026.69 1026.63 1026.54 1026.43 1026.31
1024.70 1024.70 1024.61 1024.45 1024.22 1023.96 1023.68 1023.42 1023.18 1022.98 1022.82 1022.71 1022.65 1022.63 1022.65 1022.70 1022.79 1022.90 1023.04 1023.20 1023.37 1023.55 1023.73 1023.92 1024.10 1024.29 1024.49 1024.69 1024.92 1025.17 1025.43 1025.71 1025.99 1026.25 1026.49 1026.69 1026.83 1026.91 1026.93 1026.91 1026.86 1026.78 1026.69
1024.97 1025.01 1024.95 1024.80 1024.58 1024.31 1024.02 1023.73 1023.45 1023.20 1022.98 1022.80 1022.67 1022.57 1022.53 1022.52 1022.55 1022.63 1022.74 1022.89 1023.06 1023.26 1023.47 1023.68 1023.90 1024.12 1024.34 1024.57 1024.82 1025.09 1025.37 1025.65 1025.94 1026.22 1026.47 1026.68 1026.85 1026.97 1027.03 1027.06 1027.06 1027.03 1026.99
1025.12 1025.17 1025.14 1025.01 1024.80 1024.54 1024.25 1023.95 1023.65 1023.36 1023.10 1022.86 1022.66 1022.50 1022.38 1022.31 1022.29 1022.32 1022.41 1022.54 1022.72 1022.92 1023.15 1023.39 1023.63 1023.88 1024.13 1024.38 1024.64 1024.91 1025.19 1025.48 1025.77 1026.05 1026.31 1026.54 1026.73 1026.88 1027.00 1027.08 1027.13 1027.16 1027.18
1025.14 1025.21 1025.18 1025.07 1024.89 1024.65 1024.38 1024.08 1023.77 1023.46 1023.17 1022.88 1022.63 1022.40 1022.22 1022.09 1022.02 1022.01 1022.06 1022.18 1022.35 1022.56 1022.80 1023.06 1023.32 1023.59 1023.85 1024.12 1024.39 1024.66 1024.94 1025.23 1025.51 1025.79 1026.06 1026.30 1026.52 1026.71 1026.87 1027.00 1027.10 1027.18 1027.25
1025.08 1025.14 1025.11 1025.02 1024.86 1024.64 1024.39 1024.11 1023.81 1023.49 1023.18 1022.86 1022.56 1022.28 1022.05 1021.86 1021.74 1021.70 1021.72 1021.82 1021.98 1022.19 1022.44 1022.71 1022.99 1023.27 1023.55 1023.82 1024.09 1024.36 1024.64 1024.92 1025.21 1025.49 1025.77 1026.03 1026.27 1026.49 1026.69 1026.85 1027.00 1027.12 1027.21
1024.95 1024.99 1024.96 1024.88 1024.74 1024.55 1024.32 1024.06 1023.77 1023.46 1023.13 1022.79 1022.45 1022.14 1021.86 1021.63 1021.47 1021.39 1021.39 1021.47 1021.62 1021.83 1022.07 1022.34 1022.63 1022.91 1023.20 1023.48 1023.75 1024.03 1024.31 1024.60 1024.89 1025.19 1025.48 1025.76 1026.02 1026.27 1026.48 1026.68 1026.84 1026.98 1027.09
1024.77 1024.79 1024.76 1024.68 1024.56 1024.39 1024.19 1023.95 1023.67 1023.36 1023.02 1022.66 1022.30 1021.96 1021.65 1021.39 1021.20 1021.09 1021.06 1021.12 1021.25 1021.45 1021.69 1021.95 1022.23 1022.52 1022.80 1023.09 1023.37 1023.66 1023.96 1024.26 1024.57 1024.89 1025.20 1025.50 1025.79 1026.05 1026.28 1026.49 1026.66 1026.81 1026.92
1024.55 1024.56 1024.53 1024.45 1024.34 1024.20 1024.01 1023.77 1023.50 1023.19 1022.84 1022.47 1022.09 1021.73 1021.39 1021.11 1020.89 1020.76 1020.72 1020.75 1020.87 1021.04 1021.26 1021.52 1021.79 1022.07 1022.35 1022.64 1022.93 1023.24 1023.56 1023.89 1024.23 1024.57 1024.92 1025.25 1025.56 1025.84 1026.08 1026.29 1026.47 1026.61 1026.71
1024.28 1024.29 1024.26 1024.20 1024.10 1023.95 1023.77 1023.54 1023.26 1022.94 1022.58 1022.19 1021.80 1021.42 1021.07 1020.77 1020.54 1020.39 1020.32 1020.34 1020.43 1020.58 1020.78 1021.01 1021.27 1021.54 1021.82 1022.11 1022.42 1022.74 1023.09 1023.46 1023.84 1024.22 1024.61 1024.97 1025.31 1025.61 1025.87 1026.09 1026.26 1026.39 1026.48
1023.97 1023.99 1023.97 1023.91 1023.81 1023.66 1023.47 1023.22 1022.93 1022.59 1022.21 1021.81 1021.40 1021.01 1020.65 1020.34 1020.10 1019.94 1019.86 1019.85 1019.92 1020.05 1020.22 1020.42 1020.65 1020.91 1021.18 1021.48 1021.80 1022.15 1022.53 1022.94 1023.37 1023.80 1024.23 1024.64 1025.01 1025.35 1025.63 1025.85 1026.03 1026.15 1026.24
1023.62 1023.65 1023.64 1023.58 1023.48 1023.32 1023.10 1022.83 1022.51 1022.14 1021.74 1021.32 1020.90 1020.50 1020.13 1019.82 1019.57 1019.40 1019.31 1019.28 1019.33 1019.42 1019.56 1019.73 1019.94 1020.17 1020.44 1020.74 1021.07 1021.45 1021.87 1022.32 1022.80 1023.28 1023.77 1024.23 1024.65 1025.02 1025.33 1025.59 1025.77 1025.91 1025.99
1023.23 1023.27 1023.27 1023.21 1023.09 1022.90 1022.66 1022.36 1022.00 1021.60 1021.17 1020.73 1020.30 1019.89 1019.52 1019.20 1018.95 1018.77 1018.66 1018.62 1018.63 1018.69 1018.80 1018.94 1019.12 1019.33 1019.58 1019.89 1020.24 1020.64 1021.09 1021.59 1022.12 1022.67 1023.21 1023.73 1024.21 1024.64 1024.99 1025.28 1025.50 1025.66 1025.75
1022.81 1022.86 1022.85 1022.78 1022.64 1022.43 1022.15 1021.80 1021.41 1020.97 1020.52 1020.05 1019.61 1019.19 1018.81 1018.50 1018.24 1018.05 1017.93 1017.86 1017.85 1017.88 1017.95 1018.06 1018.21 1018.40 1018.64 1018.94 1019.30 1019.73 1020.23 1020.77 1021.36 1021.97 1022.58 1023.16 1023.71 1024.19 1024.61 1024.94 1025.21 1025.40 1025.53
1022.37 1022.42 1022.40 1022.31 1022.14 1021.89 1021.57 1021.19 1020.76 1020.29 1019.80 1019.32 1018.85 1018.43 1018.05 1017.73 1017.47 1017.27 1017.12 1017.03 1016.99 1016.99 1017.02 1017.10 1017.22 1017.39 1017.63 1017.93 1018.31 1018.77 1019.30 1019.89 1020.54 1021.21 1021.89 1022.54 1023.16 1023.71 1024.19 1024.59 1024.91 1025.15 1025.31
1021.91 1021.95 1021.91 1021.80 1021.60 1021.31 1020.95 1020.53 1020.06 1019.56 1019.05 1018.55 1018.07 1017.63 1017.25 1016.91 1016.64 1016.43 1016.26 1016.15 1016.07 1016.04 1016.04 1016.09 1016.19 1016.35 1016.58 1016.90 1017.30 1017.78 1018.35 1019.00 1019.70 1020.43 1021.18 1021.90 1022.59 1023.22 1023.77 1024.23 1024.61 1024.90 1025.10
1021.42 1021.44 1021.38 1021.23 1021.00 1020.68 1020.29 1019.83 1019.33 1018.81 1018.27 1017.75 1017.26 1016.81 1016.41 1016.07 1015.78 1015.55 1015.36 1015.22 1015.12 1015.06 1015.04 1015.07 1015.16 1015.32 1015.55 1015.88 1016.30 1016.83 1017.44 1018.13 1018.88 1019.68 1020.48 1021.28 1022.03 1022.73 1023.35 1023.88 1024.32 1024.66 1024.90
1020.89 1020.88 1020.79 1020.61 1020.35 1020.00 1019.58 1019.09 1018.57 1018.02 1017.46 1016.92 1016.42 1015.96 1015.54 1015.19 1014.89 1014.63 1014.43 1014.27 1014.15 1014.08 1014.05 1014.07 1014.16 1014.33 1014.58 1014.93 1015.39 1015.94 1016.60 1017.33 1018.14 1018.98 1019.85 1020.70 1021.51 1022.27 1022.95 1023.54 1024.03 1024.41 1024.70
1020.29 1020.25 1020.13 1019.92 1019.63 1019.25 1018.80 1018.29 1017.74 1017.17 1016.60 1016.05 1015.53 1015.05 1014.63 1014.26 1013.95 1013.69 1013.47 1013.30 1013.18 1013.10 1013.08 1013.12 1013.23 1013.42 1013.70 1014.09 1014.58 1015.18 1015.87 1016.65 1017.49 1018.38 1019.29 1020.18 1021.05 1021.85 1022.57 1023.21 1023.74 1024.17 1024.49
1019.62 1019.54 1019.38 1019.14 1018.81 1018.41 1017.94 1017.41 1016.84 1016.25 1015.66 1015.10 1014.57 1014.08 1013.65 1013.28 1012.96 1012.70 1012.48 1012.33 1012.22 1012.16 1012.17 1012.24 1012.38 1012.62 1012.95 1013.38 1013.92 1014.56 1015.29 1016.10 1016.98 1017.89 1018.82 1019.75 1020.63 1021.47 1022.22 1022.89 1023.45 1023.92 1024.27
1018.85 1018.73 1018.53 1018.26 1017.90 1017.47 1016.97 1016.42 1015.83 1015.23 1014.63 1014.05 1013.51 1013.02 1012.59 1012.22 1011.91 1011.66 1011.47 1011.34 1011.27 1011.26 1011.31 1011.44 1011.65 1011.94 1012.33 1012.82 1013.41 1014.09 1014.86 1015.70 1016.59 1017.52 1018.46 1019.39 1020.29 1021.13 1021.89 1022.58 1023.16 1023.65 1024.03
Thickness
5706 5705 5703 5702 5700 5699 5697 5695 5694 5692 5691 5689 5687 5685 5684 5682 5680 5677 5675 5674 5672 5670 5669 5667 5664 5664 5662 5661 5661 5659 5658 5655 5649 5648 5649 5648 5647 5645 5643 5641 5640 5638 5635
5705 5703 5702 5700 5699 5697 5695 5694 5693 5691 5690 5688 5686 5684 5682 5680 5678 5676 5673 5671 5669 5667 5666 5664 5662 5661 5658 5657 5656 5655 5653 5652 5649 5644 5643 5643 5642 5641 5639 5637 5636 5633 5631
5703 5701 5699 5698 5696 5694 5693 5693 5692 5690 5688 5687 5685 5682 5680 5678 5676 5674 5672 5670 5668 5666 5664 5662 5659 5657 5654 5653 5652 5651 5650 5649 5646 5642 5639 5638 5638 5637 5635 5633 5632 5629 5627
5700 5698 5696 5695 5694 5692 5691 5691 5690 5688 5686 5685 5683 5680 5678 5676 5674 5672 5670 5668 5666 5664 5662 5660 5657 5654 5652 5650 5649 5647 5646 5643 5641 5638 5635 5633 5632 5632 5629 5626 5624 5623 5621
5697 5694 5693 5693 5692 5690 5688 5687 5687 5686 5684 5683 5680 5678 5676 5673 5671 5668 5666 5665 5662 5660 5659 5657 5655 5653 5650 5648 5646 5642 5641 5637 5635 5633 5630 5628 5626 5624 5622 5621 5618 5617 5615
5694 5692 5690 5690 5688 5686 5685 5683 5682 5681 5680 5678 5676 5673 5671 5669 5667 5665 5663 5661 5659 5657 5655 5653 5651 5649 5647 5645 5643 5640 5638 5634 5631 5628 5625 5623 5621 5621 5619 5618 5614 5611 5607
5690 5688 5686 5685 5683 5682 5681 5678 5676 5675 5674 5672 5671 5669 5666 5663 5663 5661 5659 5657 5655 5654 5652 5649 5648 5646 5643 5640 5638 5637 5635 5633 5630 5626 5623 5621 5619 5618 5616 5613 5610 5607 5604
5686 5684 5682 5680 5678 5677 5675 5673 5671 5670 5668 5667 5666 5664 5661 5659 5658 5657 5655 5653 5651 5650 5649 5646 5643 5641 5639 5636 5634 5631 5629 5628 5627 5624 5621 5619 5617 5615 5613 5609 5606 5603 5601
5680 5679 5678 5676 5673 5671 5669 5668 5667 5665 5663 5662 5661 5659 5657 5654 5654 5652 5650 5647 5646 5645 5644 5642 5640 5636 5635 5633 5630 5627 5624 5623 5623 5621 5618 5615 5613 5611 5608 5604 5599 5595 5591
5675 5675 5674 5672 5669 5666 5665 5663 5662 5661 5659 5658 5657 5655 5653 5651 5649 5647 5645 5643 5640 5639 5638 5636 5634 5632 5630 5627 5624 5622 5618 5617 5616 5614 5612 5610 5607 5605 5602 5598 5594 5588 5584
5672 5671 5669 5667 5665 5662 5660 5659 5657 5655 5654 5653 5651 5650 5649 5647 5645 5642 5640 5637 5635 5634 5632 5630 5629 5627 5625 5623 5620 5617 5615 5613 5610 5608 5606 5603 5601 5598 5595 5592 5589 5584 5579
5667 5664 5663 5661 5659 5658 5655 5653 5651 5649 5647 5646 5645 5644 5643 5642 5640 5637 5635 5633 5631 5628 5626 5625 5623 5622 5619 5617 5614 5612 5610 5608 5604 5601 5598 5595 5593 5591 5589 5586 5582 5579 5575
5659 5657 5656 5655 5653 5652 5649 5647 5645 5643 5640 5639 5638 5636 5636 5635 5633 5632 5629 5627 5625 5622 5620 5619 5617 5615 5613 5610 5608 5606 5604 5600 5597 5593 5590 5588 5586 5584 5581 5578 5575 5571 5568
5652 5650 5650 5648 5645 5644 5643 5641 5638 5636 5634 5633 5632 5630 5629 5627 5625 5623 5621 5619 5617 5615 5612 5611 5610 5608 5606 5604 5601 5598 5596 5594 5591 5587 5584 5582 5579 5576 5573 5569 5565 5562 5558
5646 5644 5642 5641 5639 5637 5634 5633 5632 5630 5629 5628 5626 5624 5622 5620 5620 5618 5615 5613 5610 5608 5605 5603 5601 5599 5597 5596 5594 5592 5589 5586 5583 5581 5577 5574 5571 5568 5565 5562 5558 5553 5549
5639 5638 5636 5634 5632 5629 5627 5624 5623 5623 5623 5622 5621 5619 5618 5616 5614 5612 5610 5608 5605 5603 5599 5597 5595 5593 5591 5589 5587 5584 5582 5579 5577 5574 5570 5566 5563 5560 5557 5554 5550 5545 5541
5633 5631 5629 5627 5625 5623 5620 5618 5614 5613 5614 5613 5612 5611 5610 5608 5607 5604 5602 5600 5597 5595 5592 5590 5589 5587 5585 5583 5580 5578 5575 5572 5569 5566 5562 5558 5555 5552 5549 5545 5541 5537 5534
5627 5625 5623 5621 5619 5616 5614 5612 5610 5607 5604 5603 5602 5601 5600 5599 5597 5595 5593 5590 5587 5586 5585 5583 5581 5580 5578 5575 5573 5570 5567 5564 5561 5558 5554 5550 5547 5544 5540 5537 5533 5529 5525
5619 5617 5616 5614 5611 5609 5607 5605 5603 5601 5598 5595 5593 5591 5590 5589 5587 5585 5583 5581 5580 5578 5577 5576 5574 5572 5570 5568 5565 5562 5559 5556 5553 5550 5546 5543 5539 5535 5531 5528 5525 5521 5517
5611 5610 5608 5605 5603 5601 5599 5596 5594 5592 5590 5587 5584 5582 5580 5577 5576 5574 5573 5572 5571 5570 5569 5567 5566 5564 5562 5559 5557 5553 5550 5547 5544 5540 5537 5534 5531 5527 5523 5520 5516 5512 5508
5603 5601 5600 5596 5593 5591 5589 5587 5584 5582 5580 5579 5577 5576 5573 5570 5569 5567 5565 5564 5563 5562 5561 5559 5557 5555 5553 5550 5547 5544 5541 5538 5535 5531 5528 5525 5521 5518 5515 5511 5507 5504 5500
5594 5592 5589 5587 5585 5583 5580 5578 5575 5574 5572 5570 5568 5566 5565 5563 5561 5559 5558 5556 5555 5553 5552 5550 5548 5546 5544 5541 5537 5534 5530 5527 5525 5522 5519 5515 5512 5509 5505 5502 5498 5494 5491
5585 5582 5580 5578 5576 5574 5571 5569 5567 5565 5563 5560 5558 5556 5554 5553 5552 5550 5548 5547 5545 5543 5542 5540 5538 5536 5534 5531 5528 5524 5521 5517 5515 5512 5508 5505 5502 5499 5496 5492 5489 5485 5481
5575 5572 5570 5568 5566 5563 5561 5560 5558 5556 5554 5551 5550 5547 5545 5543 5541 5539 5538 5536 5534 5533 5531 5529 5527 5525 5523 5520 5518 5514 5511 5508 5504 5501 5498 5495 5492 5489 5486 5483 5480 5476 5472
5565 5562 5560 5558 5556 5553 5551 5550 5548 5547 5545 5543 5541 5539 5536 5534 5531 5529 5527 5525 5523 5521 5519 5517 5515 5513 5511 5509 5506 5504 5501 5498 5494 5491 5488 5485 5482 5478 5475 5472 5470 5467 5464
5556 5553 5551 5548 5546 5543 5541 5540 5539 5537 5535 5534 5532 5529 5526 5523 5521 5518 5516 5513 5511 5510 5508 5505 5503 5501 5499 5497 5494 5492 5489 5487 5483 5480 5477 5475 5472 5469 5465 5463 5460 5458 5456